[[{"header":{"parameterUnit":"m.s-1","parameterCategory":2,"la1":30.2992,"la2":30.254,"lo1":-89.0895,"lo2":-89.0443,"dy":0.0025,"dx":0.0025,"nx":19,"ny":19,"refTime":"2026-05-10T21:00:00:Z","depth":"0","parameterNumber":2,"parameterNumberName":"U-component_of_CURRENTS"},"data":[0,0,0,0.0489,0.0488,0.0488,0.0488,0.0479,0.0479,0,0,0,0,0,0,0,0,0,0,0,0.0482,0.0482,0.0489,0.0488,0.0488,0.0488,0.0479,0.0479,0,0,0,0,0,0,0,0,0,0,0,0.0482,0.0482,0.0481,0.0488,0.0488,0.0488,0.0479,0.0483,0,0,0,0,0,0,0,0,0,0,0.0485,0.0468,0.0482,0.0481,0.0488,0.0488,0.0488,0.0483,0.0483,0.0475,0,0.0464,0,0.047,0.0477,0.0477,0,0,0,0.0495,0.0468,0.0478,0.0481,0.0488,0.0488,0.049,0.0483,0.0482,0.0474,0.0464,0.0464,0.047,0.0477,0.0477,0.0413,0.0412,0,0,0.0495,0.0475,0.0478,0.0477,0.0474,0.049,0.049,0.0483,0.047,0.0464,0.0464,0.047,0.0477,0.0477,0.0413,0.0413,0,0,0,0.049,0.0475,0.0485,0.0477,0.0477,0.049,0.049,0.047,0.0476,0.0464,0.047,0.0477,0.0477,0.0414,0.0413,0.0368,0,0,0,0.0491,0.0473,0.0485,0.0472,0.0477,0.0472,0.0477,0.0476,0.0476,0.047,0.0477,0.0476,0.0415,0.0413,0.037,0.035,0,0,0,0.0485,0.0472,0.047,0.0471,0.047,0.0473,0.0478,0.0476,0.0479,0.0477,0.0476,0.0415,0.0414,0.0373,0.0354,0.0327,0,0,0,0.0469,0.0422,0.0469,0.0424,0.047,0.0447,0.0478,0.0457,0.045,0.0477,0.0414,0.0413,0.0373,0.0357,0.0329,0.0314,0.0303,0,0,0.0398,0.0413,0.039,0.0431,0.04,0.0448,0.0407,0.0413,0.0429,0.0419,0.0418,0.037,0.0355,0.0328,0.0239,0.0229,0,0,0,0.036,0.0343,0.034,0.0339,0.0351,0.0361,0.0375,0.0377,0.0367,0.0418,0.0356,0.0347,0.0332,0.0327,0.0319,0.0318,0.0407,0.0407,0.0407,0.0229,0.0265,0.0234,0.0273,0.0269,0.0293,0.0288,0.0296,0.0318,0.0302,0.03,0.0234,0.0227,0.0221,0.0219,0.0288,0.0288,0.0288,0.0288,0.0141,0.0133,0.0181,0.0168,0.0206,0.0189,0.0209,0.0223,0.0207,0.0241,0.0228,0.0267,0.021,0.0211,0.0285,0.0285,0.0286,0.0286,0.0286,0.0071,0.0075,0.0086,0.0099,0.01,0.0133,0.0122,0.0141,0.016,0.0146,0.0152,0.0153,0.0165,0.0143,0.0143,0.0143,0.0142,0.0142,0.0142,0.0001,0.0016,0.0009,0.0028,0.0037,0.0047,0.0071,0.0072,0.008,0.0096,0.0096,0.0132,0.019,0.0208,0.0139,0.0139,0.014,0.014,0.014,-0.0071,-0.0058,-0.0065,-0.0058,-0.0031,-0.0022,0.0,0.0007,0.0006,0.0002,0.0037,0.0072,0.0087,0.0094,0.0109,0.0018,0.0018,0.0018,0.0018,-0.0119,-0.0113,-0.011,-0.0099,-0.0085,-0.0051,-0.0063,-0.0061,-0.0041,-0.0035,-0.0015,0.0013,0.0019,0.0032,0.004,0.0055,-0.0047,-0.0047,-0.0047,-0.015,-0.014,-0.0144,-0.0121,-0.0097,-0.0075,-0.0085,-0.0121,-0.0093,-0.0049,-0.0018,-0.0015,0.003,0.0038,0.0066,0.0078,0.0106,0,0]},{"header":{"parameterUnit":"m.s-1","parameterCategory":2,"la1":30.2992,"la2":30.254,"lo1":-89.0895,"lo2":-89.0443,"dy":0.0025,"dx":0.0025,"nx":19,"ny":19,"refTime":"2026-05-10T21:00:00:Z","depth":"0","parameterNumber":3,"parameterNumberName":"V-component_of_CURRENTS"},"data":[0,0,0,-0.1884,-0.1884,-0.1901,-0.1901,-0.1868,-0.1867,0,0,0,0,0,0,0,0,0,0,0,-0.1876,-0.1876,-0.1884,-0.1884,-0.1901,-0.1901,-0.1868,-0.1867,0,0,0,0,0,0,0,0,0,0,0,-0.1876,-0.1876,-0.1877,-0.1884,-0.1901,-0.1901,-0.1868,-0.1866,0,0,0,0,0,0,0,0,0,0,-0.1856,-0.1852,-0.1876,-0.1877,-0.1885,-0.1901,-0.1901,-0.1867,-0.1866,-0.1847,0,-0.1858,0,-0.1866,-0.1865,-0.1865,0,0,0,-0.1875,-0.1852,-0.1868,-0.1877,-0.1885,-0.1901,-0.1891,-0.1867,-0.1867,-0.1847,-0.1858,-0.1857,-0.1865,-0.1864,-0.1864,-0.1831,-0.1831,0,0,-0.1874,-0.1865,-0.1868,-0.1868,-0.1898,-0.189,-0.1892,-0.1867,-0.1863,-0.1857,-0.1856,-0.1864,-0.1864,-0.1864,-0.1831,-0.1831,0,0,0,-0.1878,-0.1865,-0.1881,-0.1869,-0.1878,-0.1891,-0.1892,-0.1864,-0.1873,-0.1856,-0.1864,-0.1864,-0.1863,-0.1831,-0.1831,-0.1842,0,0,0,-0.1877,-0.1868,-0.1881,-0.1874,-0.1879,-0.1877,-0.1889,-0.1874,-0.1872,-0.1864,-0.1864,-0.1863,-0.1831,-0.1831,-0.1842,-0.1835,0,0,0,-0.1874,-0.1867,-0.1875,-0.1874,-0.1887,-0.1878,-0.1885,-0.1874,-0.1877,-0.1865,-0.1863,-0.1831,-0.1831,-0.1841,-0.1835,-0.1801,0,0,0,-0.1856,-0.1866,-0.1874,-0.1885,-0.1887,-0.1897,-0.1885,-0.1882,-0.1873,-0.1864,-0.1831,-0.1831,-0.1841,-0.1836,-0.1802,-0.1749,-0.1742,0,0,-0.1859,-0.1866,-0.1873,-0.1882,-0.1897,-0.1894,-0.1892,-0.1875,-0.1862,-0.1834,-0.1833,-0.1842,-0.1835,-0.1801,-0.174,-0.1733,0,0,0,-0.1868,-0.1875,-0.1881,-0.1892,-0.1901,-0.1899,-0.1888,-0.1877,-0.1856,-0.1858,-0.1835,-0.1831,-0.1809,-0.1778,-0.1773,-0.1615,-0.183,-0.183,-0.183,-0.1852,-0.1868,-0.1877,-0.1896,-0.1898,-0.1896,-0.1884,-0.1864,-0.1857,-0.1849,-0.1835,-0.181,-0.1779,-0.1774,-0.1612,-0.1836,-0.1836,-0.1836,-0.1836,-0.1859,-0.1866,-0.1876,-0.1891,-0.1892,-0.1887,-0.187,-0.1863,-0.1827,-0.1837,-0.1815,-0.1786,-0.1768,-0.1598,-0.1836,-0.1836,-0.1836,-0.1836,-0.1836,-0.1856,-0.1859,-0.1871,-0.1883,-0.1877,-0.1875,-0.1843,-0.1837,-0.1822,-0.1808,-0.1748,-0.1747,-0.1598,-0.1791,-0.179,-0.179,-0.179,-0.179,-0.179,-0.1842,-0.1855,-0.186,-0.187,-0.1867,-0.185,-0.1824,-0.1799,-0.1758,-0.174,-0.1739,-0.156,-0.1795,-0.1798,-0.1787,-0.1788,-0.1788,-0.1788,-0.1788,-0.183,-0.1837,-0.1846,-0.1847,-0.1836,-0.1811,-0.1789,-0.1723,-0.169,-0.1661,-0.1457,-0.1694,-0.1676,-0.168,-0.1679,-0.1639,-0.1639,-0.1639,-0.1639,-0.181,-0.1818,-0.182,-0.1818,-0.1805,-0.1788,-0.1715,-0.1643,-0.1474,-0.1346,-0.1306,-0.129,-0.1303,-0.1263,-0.1276,-0.1266,-0.1122,-0.1121,-0.112,-0.1786,-0.1797,-0.1788,-0.18,-0.179,-0.1761,-0.1679,-0.1541,-0.1255,-0.1084,-0.1091,-0.1113,-0.1079,-0.1113,-0.1045,-0.1076,-0.106,0,0]}],[{"header":{"parameterUnit":"m.s-1","parameterCategory":2,"la1":30.2992,"la2":30.254,"lo1":-89.0895,"lo2":-89.0443,"dy":0.0025,"dx":0.0025,"nx":19,"ny":19,"refTime":"2026-05-10T21:00:00:Z","depth":"2","parameterNumber":2,"parameterNumberName":"U-component_of_CURRENTS"},"data":[0,0,0,0.0212,0.0211,0.0162,0.0162,0.0178,0.0179,0,0,0,0,0,0,0,0,0,0,0,0.0233,0.0233,0.0212,0.021,0.0162,0.0162,0.0178,0.0179,0,0,0,0,0,0,0,0,0,0,0,0.0233,0.0233,0.0232,0.021,0.0162,0.0161,0.0178,0.0197,0,0,0,0,0,0,0,0,0,0,0.0235,0.025,0.0233,0.0232,0.021,0.0162,0.0161,0.0197,0.0196,0.0221,0,0.0209,0,0.0192,0.0181,0.0181,0,0,0,0.0217,0.0251,0.0227,0.0232,0.0209,0.0162,0.0185,0.0196,0.0194,0.022,0.0209,0.0209,0.0192,0.0181,0.0181,0.0201,0.0201,0,0,0.0219,0.0237,0.0228,0.0226,0.0193,0.0187,0.0184,0.0194,0.02,0.0209,0.0209,0.0192,0.0182,0.0182,0.0201,0.0201,0,0,0,0.0223,0.0239,0.0214,0.0226,0.0209,0.0185,0.0182,0.0199,0.0187,0.0209,0.0192,0.0182,0.0182,0.0201,0.0201,0.0172,0,0,0,0.0225,0.0241,0.0215,0.0227,0.0208,0.0195,0.0187,0.0187,0.0187,0.0192,0.0182,0.0183,0.0201,0.0201,0.0173,0.0166,0,0,0,0.0236,0.0242,0.0232,0.0228,0.0202,0.0193,0.0182,0.0186,0.0177,0.0181,0.0183,0.0201,0.0201,0.0173,0.0168,0.0158,0,0,0,0.0262,0.0228,0.0233,0.0197,0.0202,0.0171,0.0182,0.0168,0.0169,0.0182,0.0201,0.0201,0.0174,0.0168,0.0159,0.0111,0.0104,0,0,0.0227,0.0225,0.0202,0.0203,0.0167,0.0179,0.016,0.0166,0.0179,0.0205,0.0205,0.0172,0.0168,0.0158,0.0105,0.0097,0,0,0,0.0195,0.0179,0.0169,0.0153,0.0142,0.0147,0.0152,0.0157,0.0163,0.0176,0.0178,0.0177,0.0171,0.0145,0.0139,0.0201,0.0201,0.0201,0.0201,0.0181,0.0164,0.0136,0.0122,0.0119,0.0128,0.0129,0.0142,0.0156,0.0153,0.0157,0.0136,0.0107,0.0102,0.0158,0.0158,0.0158,0.0158,0.0158,0.013,0.0108,0.0116,0.0078,0.01,0.0098,0.0116,0.012,0.0125,0.0138,0.0134,0.012,0.0094,0.0156,0.0156,0.0156,0.0157,0.0157,0.0157,0.0117,0.0103,0.0084,0.0057,0.0059,0.0074,0.0065,0.0084,0.0102,0.0097,0.0073,0.0073,0.0118,0.0092,0.0092,0.0092,0.0092,0.0092,0.0092,0.0108,0.0088,0.0056,0.0032,0.0024,0.0019,0.0032,0.0032,0.0036,0.0044,0.0044,0.0114,0.0116,0.0115,0.0091,0.0091,0.0091,0.0091,0.0091,0.0064,0.0067,0.0017,-0.0002,-0.0027,-0.0042,-0.003,-0.0044,-0.0038,-0.0044,0.0014,0.0017,0.0024,0.0029,0.0026,-0.002,-0.002,-0.002,-0.002,0.005,0.0043,-0.0014,-0.0044,-0.0065,-0.0067,-0.0128,-0.0181,-0.0154,-0.0161,-0.0156,-0.0163,-0.0155,-0.0157,-0.0148,-0.0154,-0.0247,-0.0248,-0.0248,0.0024,0.0013,-0.0027,-0.0056,-0.0077,-0.0098,-0.0179,-0.0369,-0.042,-0.0259,-0.021,-0.0033,-0.0026,-0.0021,-0.0008,-0.0,-0.0003,0,0]},{"header":{"parameterUnit":"m.s-1","parameterCategory":2,"la1":30.2992,"la2":30.254,"lo1":-89.0895,"lo2":-89.0443,"dy":0.0025,"dx":0.0025,"nx":19,"ny":19,"refTime":"2026-05-10T21:00:00:Z","depth":"2","parameterNumber":3,"parameterNumberName":"V-component_of_CURRENTS"},"data":[0,0,0,-0.0038,-0.0038,-0.0015,-0.0014,0.0079,0.008,0,0,0,0,0,0,0,0,0,0,0,-0.0062,-0.0063,-0.0038,-0.0038,-0.0015,-0.0014,0.0079,0.008,0,0,0,0,0,0,0,0,0,0,0,-0.0062,-0.0063,-0.0064,-0.0038,-0.0015,-0.0014,0.0079,0.005,0,0,0,0,0,0,0,0,0,0,0.0022,-0.0019,-0.0062,-0.0064,-0.0038,-0.0015,-0.0014,0.0049,0.0052,0.008,0,0.0053,0,0.0067,0.0086,0.0086,0,0,0,-0.0017,-0.0022,-0.0016,-0.0064,-0.0039,-0.0015,-0.0019,0.005,0.0055,0.0085,0.0054,0.0058,0.0069,0.0086,0.0087,0.0122,0.0121,0,0,-0.0018,-0.0046,-0.002,-0.0015,-0.0071,-0.002,-0.0019,0.0052,0.0042,0.0055,0.006,0.007,0.0087,0.0088,0.0122,0.0122,0,0,0,-0.0037,-0.0048,-0.0044,-0.0019,-0.0021,-0.002,-0.0019,0.0039,0.0038,0.0061,0.0071,0.0087,0.0089,0.0122,0.0122,0.005,0,0,0,-0.0036,-0.0059,-0.0046,-0.006,-0.0023,0.0001,-0.0034,0.0033,0.0042,0.0071,0.0087,0.0089,0.0122,0.0122,0.0052,0.0029,0,0,0,-0.0056,-0.006,-0.007,-0.0062,-0.0059,-0.0,0.0004,0.0035,0.0048,0.0086,0.009,0.0123,0.0122,0.0055,0.0033,0.0031,0,0,0,-0.0065,-0.0093,-0.0072,-0.0082,-0.006,-0.002,0.0004,0.0027,0.0053,0.0088,0.0122,0.0122,0.0055,0.0035,0.0033,0.0128,0.0127,0,0,-0.0096,-0.0098,-0.0094,-0.0074,-0.0046,-0.0019,0.0005,0.0033,0.0056,0.0108,0.0109,0.0052,0.0033,0.0031,0.0092,0.0092,0,0,0,-0.0098,-0.0107,-0.0089,-0.0074,-0.0034,-0.0016,0.0018,0.0025,0.003,0.0064,0.0059,0.005,0.0051,0.0113,0.0113,0.0119,0.0119,0.0119,0.0119,-0.0177,-0.0131,-0.0119,-0.0072,-0.0051,-0.0015,-0.0007,0.0004,0.0025,-0.0001,-0.0004,-0.0047,0.0017,0.0018,-0.0001,-0.0001,-0.0002,-0.0002,-0.0002,-0.0208,-0.0197,-0.0144,-0.0134,-0.0099,-0.0094,-0.0048,-0.0057,-0.0061,-0.005,-0.0046,0.004,0.0014,-0.0008,-0.0007,-0.0006,-0.0005,-0.0005,-0.0005,-0.0262,-0.0249,-0.025,-0.0221,-0.0208,-0.0166,-0.0143,-0.0137,-0.0127,-0.0138,-0.0049,-0.0046,-0.0079,-0.0146,-0.0146,-0.0146,-0.0146,-0.0146,-0.0146,-0.033,-0.0312,-0.0335,-0.0303,-0.0289,-0.0265,-0.0216,-0.0182,-0.0132,-0.0107,-0.0106,-0.0095,-0.009,-0.0085,-0.0148,-0.0148,-0.0148,-0.0148,-0.0147,-0.0374,-0.0408,-0.0413,-0.0414,-0.0346,-0.0295,-0.0239,-0.0139,-0.0112,-0.0066,-0.0064,-0.0065,-0.0023,-0.0021,-0.0013,-0.0054,-0.0054,-0.0054,-0.0054,-0.0425,-0.0433,-0.0459,-0.0437,-0.0373,-0.0299,-0.0216,-0.0062,0.0031,0.0121,0.0113,0.0163,0.0156,0.0211,0.0208,0.0222,0.0242,0.0243,0.0243,-0.0442,-0.0456,-0.0472,-0.0464,-0.0376,-0.0297,-0.0212,-0.001,0.026,0.0254,0.016,-0.0033,0.0022,0.0018,0.009,0.009,0.0108,0,0]}],[{"header":{"parameterUnit":"m.s-1","parameterCategory":2,"la1":30.2992,"la2":30.254,"lo1":-89.0895,"lo2":-89.0443,"dy":0.0025,"dx":0.0025,"nx":19,"ny":19,"refTime":"2026-05-10T21:00:00:Z","depth":"4","parameterNumber":2,"parameterNumberName":"U-component_of_CURRENTS"},"data":[0,0,0,-0.0598,-0.0603,-0.0833,-0.0834,-0.1142,-0.1145,0,0,0,0,0,0,0,0,0,0,0,-0.0489,-0.0491,-0.0598,-0.0604,-0.0833,-0.0834,-0.1141,-0.1145,0,0,0,0,0,0,0,0,0,0,0,-0.0489,-0.049,-0.0492,-0.0605,-0.0833,-0.0834,-0.1141,-0.0962,0,0,0,0,0,0,0,0,0,0,-0.0736,-0.0658,-0.049,-0.0492,-0.0606,-0.0832,-0.0834,-0.0953,-0.0973,-0.1045,0,-0.107,0,-0.1135,-0.1166,-0.1168,0,0,0,-0.0595,-0.0641,-0.069,-0.0492,-0.0608,-0.0832,-0.0727,-0.0964,-0.0987,-0.1072,-0.1075,-0.1087,-0.114,-0.1169,-0.117,-0.1467,-0.1468,0,0,-0.0582,-0.0551,-0.0674,-0.0704,-0.0657,-0.072,-0.0734,-0.0977,-0.1005,-0.1076,-0.1095,-0.1145,-0.1171,-0.1173,-0.1467,-0.1468,0,0,0,-0.0552,-0.0542,-0.0585,-0.069,-0.0742,-0.0727,-0.0743,-0.0993,-0.1004,-0.1099,-0.1149,-0.1173,-0.1177,-0.1466,-0.1467,-0.133,0,0,0,-0.0544,-0.0526,-0.0579,-0.0566,-0.0737,-0.0877,-0.0754,-0.0985,-0.1016,-0.1147,-0.1173,-0.118,-0.1465,-0.1466,-0.1332,-0.1257,0,0,0,-0.0481,-0.0521,-0.0539,-0.0563,-0.0669,-0.0874,-0.0899,-0.0993,-0.1048,-0.1168,-0.1181,-0.1464,-0.1466,-0.1333,-0.1262,-0.1217,0,0,0,-0.0452,-0.0499,-0.0538,-0.0624,-0.0667,-0.0823,-0.0898,-0.1045,-0.1147,-0.1174,-0.1465,-0.1467,-0.1334,-0.1264,-0.122,-0.1084,0,0,0,-0.0493,-0.0503,-0.0556,-0.0597,-0.0739,-0.0792,-0.0976,-0.1139,-0.12,-0.1383,-0.139,-0.1331,-0.1262,-0.1218,-0.1203,0,0,0,0,-0.0558,-0.0584,-0.0636,-0.0735,-0.0846,-0.0952,-0.1124,-0.1175,-0.1287,-0.1274,-0.141,-0.1372,-0.1347,-0.1282,-0.1476,-0.1476,-0.1476,-0.1476,-0.1475,-0.0533,-0.0616,-0.071,-0.0826,-0.0927,-0.1104,-0.1164,-0.1271,-0.1341,-0.1357,-0.1318,-0.1271,-0.1205,-0.1397,-0.1396,-0.1396,-0.1395,-0.1395,-0.1395,-0.0561,-0.061,-0.0733,-0.082,-0.0946,-0.1061,-0.122,-0.1244,-0.1269,-0.1311,-0.1292,-0.1217,-0.1383,-0.1385,-0.1387,-0.1388,-0.1389,-0.139,-0.1391,-0.0505,-0.0546,-0.0591,-0.0725,-0.0822,-0.0972,-0.1003,-0.1085,-0.1123,-0.109,-0.1027,-0.1192,-0.1135,-0.1058,-0.1057,-0.1057,-0.1056,-0.1056,-0.1056,-0.0403,-0.0482,-0.0501,-0.0622,-0.0659,-0.0702,-0.082,-0.0806,-0.0875,-0.0867,-0.1023,-0.1158,-0.1169,-0.1121,-0.1048,-0.1049,-0.105,-0.1051,-0.1051,-0.0358,-0.0348,-0.039,-0.0416,-0.0495,-0.0535,-0.0637,-0.0612,-0.0579,-0.0543,-0.0781,-0.0797,-0.0831,-0.085,-0.0791,-0.0618,-0.0615,-0.0613,0,-0.0279,-0.0301,-0.0313,-0.0348,-0.0358,-0.0457,-0.0377,-0.0372,-0.0458,-0.0491,-0.0564,-0.0837,-0.0848,-0.0893,-0.0907,-0.0841,0,0,0,-0.0246,-0.025,-0.0243,-0.0289,-0.0314,-0.0312,-0.0348,-0.033,-0.0494,-0.0362,-0.056,-0.0574,-0.0756,-0.1024,-0.1115,-0.1128,-0.1055,0,0]},{"header":{"parameterUnit":"m.s-1","parameterCategory":2,"la1":30.2992,"la2":30.254,"lo1":-89.0895,"lo2":-89.0443,"dy":0.0025,"dx":0.0025,"nx":19,"ny":19,"refTime":"2026-05-10T21:00:00:Z","depth":"4","parameterNumber":3,"parameterNumberName":"V-component_of_CURRENTS"},"data":[0,0,0,0.0344,0.0347,0.0447,0.0448,0.0548,0.0549,0,0,0,0,0,0,0,0,0,0,0,0.028,0.028,0.0344,0.0347,0.0447,0.0448,0.0548,0.0549,0,0,0,0,0,0,0,0,0,0,0,0.028,0.028,0.0281,0.0347,0.0447,0.0448,0.0548,0.0477,0,0,0,0,0,0,0,0,0,0,0.0383,0.0379,0.028,0.0281,0.0348,0.0447,0.0448,0.0474,0.0482,0.0497,0,0.0497,0,0.0541,0.0556,0.0556,0,0,0,0.034,0.0373,0.0357,0.0281,0.0349,0.0447,0.04,0.0479,0.0487,0.0507,0.0499,0.0504,0.0543,0.0556,0.0557,0.0625,0.0625,0,0,0.0335,0.0345,0.0351,0.0361,0.0355,0.0397,0.0403,0.0484,0.0509,0.0499,0.0507,0.0545,0.0557,0.0558,0.0625,0.0625,0,0,0,0.0323,0.0342,0.0326,0.0356,0.0386,0.04,0.0407,0.0506,0.0487,0.0508,0.0546,0.0558,0.0559,0.0625,0.0625,0.0551,0,0,0,0.032,0.0335,0.0322,0.0337,0.0384,0.0466,0.0428,0.0481,0.0493,0.0545,0.0558,0.056,0.0625,0.0625,0.0553,0.0542,0,0,0,0.0279,0.0334,0.0327,0.0336,0.0381,0.0465,0.0454,0.0484,0.0516,0.0556,0.056,0.0625,0.0625,0.0555,0.0545,0.0536,0,0,0,0.031,0.0306,0.0328,0.0326,0.038,0.034,0.0454,0.0501,0.0531,0.0558,0.0625,0.0625,0.0556,0.0546,0.0537,0.0486,0,0,0,0.0313,0.0308,0.0294,0.0315,0.0266,0.0328,0.0318,0.0448,0.0537,0.0596,0.0598,0.0553,0.0545,0.0536,0.0486,0,0,0,0,0.0298,0.0299,0.0276,0.027,0.0232,0.0234,0.0338,0.04,0.0522,0.0559,0.0573,0.0572,0.0568,0.0543,0.0625,0.0625,0.0625,0.0625,0.0625,0.033,0.029,0.0258,0.0208,0.0176,0.0204,0.0228,0.0343,0.0431,0.0503,0.0525,0.0491,0.0462,0.0533,0.0532,0.0532,0.0532,0.0531,0.0531,0.0321,0.0299,0.0249,0.0246,0.019,0.0205,0.0201,0.0292,0.039,0.0473,0.0472,0.0485,0.0524,0.0526,0.0527,0.0528,0.0528,0.0529,0.0529,0.0358,0.0334,0.0378,0.0346,0.0313,0.0271,0.0202,0.0271,0.037,0.0367,0.0399,0.046,0.0451,0.0399,0.0399,0.0399,0.0399,0.0399,0.0399,0.0387,0.0394,0.0456,0.0433,0.0414,0.0339,0.0256,0.0203,0.0256,0.0335,0.0391,0.0448,0.0452,0.0446,0.0397,0.0398,0.0398,0.0398,0.0398,0.0401,0.0473,0.0512,0.0536,0.0428,0.0309,0.0211,0.0112,0.0099,0.0115,0.0305,0.031,0.0341,0.0349,0.034,0.0258,0.0257,0.0256,0,0.0416,0.0446,0.0514,0.0505,0.0381,0.0252,0.0102,0.0007,0.0101,0.0207,0.0103,0.0324,0.0328,0.0366,0.0371,0.0361,0,0,0,0.0392,0.0416,0.0457,0.0496,0.0359,0.0158,0.0046,0.0063,0.0152,-0.0001,0.0235,0.024,0.009,0.0392,0.0454,0.0459,0.0453,0,0]}]]